TimeEDT,TemperatureF,Dew PointF,Humidity,Sea Level PressureIn,VisibilityMPH,Wind Direction,Wind SpeedMPH,Gust SpeedMPH,PrecipitationIn,Events,Conditions,WindDirDegrees,DateUTC
12:15 AM,23.7,17.4,77,29.66,3.0,Calm,Calm,-,N/A,Snow,Light Snow,0,2013-03-23 04:15:00
12:35 AM,23.4,17.6,79,29.66,3.0,Calm,Calm,-,N/A,Snow,Light Snow,0,2013-03-23 04:35:00
12:55 AM,23.0,17.8,80,29.66,3.0,WNW,3.5,-,N/A,Snow,Light Snow,290,2013-03-23 04:55:00
1:15 AM,23.4,17.8,79,29.66,2.5,WNW,4.6,-,N/A,Snow,Light Snow,290,2013-03-23 05:15:00
1:55 AM,23.0,18.5,83,29.65,4.0,WNW,3.5,-,N/A,Snow,Light Snow,290,2013-03-23 05:55:00
2:15 AM,23.2,18.5,82,29.65,2.0,WSW,3.5,-,N/A,Snow,Light Snow,250,2013-03-23 06:15:00
2:35 AM,23.0,19.2,85,29.64,2.5,Calm,Calm,-,N/A,Snow,Light Snow,0,2013-03-23 06:35:00
2:55 AM,22.8,19.4,87,29.64,1.8,Calm,Calm,-,N/A,Snow,Light Snow,0,2013-03-23 06:55:00
3:15 AM,22.5,19.4,88,29.63,1.8,WSW,3.5,-,N/A,Snow,Light Snow,250,2013-03-23 07:15:00
3:35 AM,22.1,19.2,89,29.62,5.0,SW,4.6,-,N/A,Snow,Light Snow,220,2013-03-23 07:35:00
3:55 AM,22.1,19.2,89,29.61,10.0,WSW,3.5,-,N/A,,Overcast,250,2013-03-23 07:55:00
4:35 AM,22.5,19.2,87,29.60,10.0,West,3.5,-,N/A,,Overcast,270,2013-03-23 08:35:00
4:55 AM,23.5,19.2,84,29.60,10.0,WNW,4.6,-,N/A,Snow,Light Snow,300,2013-03-23 08:55:00
5:15 AM,24.8,19.9,82,29.61,10.0,WNW,4.6,-,N/A,,Overcast,290,2013-03-23 09:15:00
5:35 AM,24.8,19.9,82,29.61,5.0,West,3.5,-,N/A,Snow,Light Snow,280,2013-03-23 09:35:00
5:55 AM,24.1,19.4,82,29.60,7.0,West,6.9,-,N/A,Snow,Light Snow,260,2013-03-23 09:55:00
6:15 AM,24.8,20.1,82,29.60,4.0,West,5.8,-,N/A,Snow,Light Snow,270,2013-03-23 10:15:00
6:55 AM,24.8,21.2,86,29.60,1.8,West,9.2,-,N/A,Snow,Light Snow,280,2013-03-23 10:55:00
7:15 AM,24.8,20.7,84,29.60,1.8,West,9.2,16.1,N/A,Snow,Light Snow,280,2013-03-23 11:15:00
7:35 AM,24.8,20.7,84,29.60,3.0,West,8.1,-,N/A,Snow,Light Snow,270,2013-03-23 11:35:00
7:55 AM,25.2,20.8,84,29.60,1.5,West,8.1,-,N/A,Snow,Light Snow,270,2013-03-23 11:55:00
8:15 AM,25.3,20.7,82,29.60,1.8,West,9.2,-,N/A,Snow,Light Snow,280,2013-03-23 12:15:00
8:35 AM,26.2,20.5,79,29.60,4.0,West,8.1,-,N/A,Snow,Light Snow,280,2013-03-23 12:35:00
8:55 AM,26.6,20.3,77,29.59,2.0,West,10.4,-,N/A,Snow,Light Snow,280,2013-03-23 12:55:00
9:15 AM,27.1,20.7,77,29.60,1.2,West,8.1,16.1,N/A,Snow,Light Snow,280,2013-03-23 13:15:00
9:35 AM,27.7,21.2,77,29.60,2.0,WNW,5.8,9.2,N/A,Snow,Light Snow,290,2013-03-23 13:35:00
9:55 AM,27.9,20.3,73,29.59,2.5,West,12.7,18.4,N/A,Snow,Light Snow,280,2013-03-23 13:55:00
10:15 AM,28.8,19.9,70,29.59,7.0,West,12.7,18.4,N/A,Snow,Light Snow,270,2013-03-23 14:15:00
10:35 AM,29.3,18.9,65,29.57,5.0,West,18.4,24.2,N/A,,Haze,270,2013-03-23 14:35:00
10:55 AM,30.2,18.7,62,29.57,7.0,WNW,18.4,26.5,N/A,,Overcast,290,2013-03-23 14:55:00
11:15 AM,30.0,18.0,61,29.57,7.0,West,16.1,26.5,N/A,,Overcast,270,2013-03-23 15:15:00
11:35 AM,30.2,18.3,61,29.57,5.0,West,17.3,28.8,N/A,,Haze,270,2013-03-23 15:35:00
11:55 AM,30.2,18.3,61,29.57,5.0,West,20.7,28.8,N/A,,Haze,280,2013-03-23 15:55:00
12:15 PM,30.9,18.9,61,29.57,4.0,West,18.4,27.6,N/A,,Haze,280,2013-03-23 16:15:00
12:35 PM,31.3,19.8,62,29.57,4.0,West,18.4,27.6,N/A,Snow,Light Snow,260,2013-03-23 16:35:00
12:55 PM,30.7,20.3,65,29.58,2.5,West,18.4,28.8,N/A,Snow,Light Snow,280,2013-03-23 16:55:00
1:15 PM,30.6,20.7,67,29.59,4.0,West,17.3,21.9,N/A,Snow,Light Snow,280,2013-03-23 17:15:00
1:35 PM,30.2,20.1,66,29.59,3.0,West,17.3,25.3,N/A,Snow,Light Snow,280,2013-03-23 17:35:00
1:55 PM,30.2,20.1,66,29.59,3.0,West,15.0,24.2,N/A,Snow,Light Snow,280,2013-03-23 17:55:00
2:15 PM,30.2,20.8,68,29.60,2.5,West,17.3,25.3,N/A,Snow,Light Snow,270,2013-03-23 18:15:00
2:35 PM,30.7,21.0,67,29.60,2.5,West,16.1,32.2,N/A,Snow,Light Snow,270,2013-03-23 18:35:00
2:55 PM,30.7,21.0,67,29.61,4.0,West,17.3,24.2,N/A,Snow,Light Snow,280,2013-03-23 18:55:00
3:15 PM,30.4,21.2,69,29.62,3.0,West,16.1,29.9,N/A,Snow,Light Snow,270,2013-03-23 19:15:00
3:35 PM,30.6,21.2,68,29.62,4.0,West,11.5,23.0,N/A,Snow,Light Snow,270,2013-03-23 19:35:00
3:55 PM,30.9,20.8,66,29.63,4.0,West,18.4,25.3,N/A,Snow,Light Snow,260,2013-03-23 19:55:00
4:15 PM,31.1,21.0,66,29.62,4.0,West,23.0,32.2,N/A,Snow,Light Snow,270,2013-03-23 20:15:00
4:35 PM,31.6,21.0,65,29.64,7.0,West,13.8,25.3,N/A,,Overcast,270,2013-03-23 20:35:00
4:55 PM,31.8,21.2,65,29.64,5.0,West,18.4,31.1,N/A,Snow,Light Snow,280,2013-03-23 20:55:00
5:15 PM,31.3,21.4,67,29.65,7.0,West,13.8,27.6,N/A,Snow,Light Snow,270,2013-03-23 21:15:00
5:35 PM,31.1,21.2,67,29.65,10.0,West,17.3,21.9,N/A,,Overcast,280,2013-03-23 21:35:00
5:55 PM,31.1,21.2,67,29.66,7.0,WNW,20.7,24.2,N/A,Snow,Light Snow,290,2013-03-23 21:55:00
6:15 PM,30.9,21.2,67,29.66,10.0,West,12.7,21.9,N/A,,Overcast,280,2013-03-23 22:15:00
6:35 PM,31.1,21.0,66,29.67,10.0,West,16.1,24.2,N/A,,Overcast,280,2013-03-23 22:35:00
6:55 PM,30.9,21.2,67,29.68,10.0,West,12.7,24.2,N/A,,Overcast,280,2013-03-23 22:55:00
7:15 PM,30.6,21.6,69,29.69,10.0,WNW,12.7,18.4,N/A,Snow,Light Snow,290,2013-03-23 23:15:00
7:35 PM,30.2,22.1,72,29.69,10.0,West,12.7,19.6,N/A,,Overcast,280,2013-03-23 23:35:00
7:55 PM,30.2,22.3,72,29.70,10.0,West,12.7,20.7,N/A,,Overcast,280,2013-03-23 23:55:00
8:15 PM,30.2,22.5,73,29.70,7.0,West,15.0,19.6,N/A,Snow,Light Snow,280,2013-03-24 00:15:00
8:35 PM,30.2,22.1,72,29.71,7.0,West,15.0,20.7,N/A,Snow,Light Snow,280,2013-03-24 00:35:00
8:55 PM,30.2,22.1,72,29.72,10.0,West,9.2,19.6,N/A,Snow,Light Snow,280,2013-03-24 00:55:00
9:15 PM,30.6,21.7,70,29.72,10.0,West,11.5,19.6,N/A,Snow,Light Snow,280,2013-03-24 01:15:00
9:35 PM,30.6,21.2,68,29.72,10.0,WNW,12.7,19.6,N/A,Snow,Light Snow,290,2013-03-24 01:35:00
9:55 PM,30.6,21.2,68,29.73,10.0,West,10.4,-,N/A,,Overcast,280,2013-03-24 01:55:00
10:15 PM,30.9,20.8,66,29.72,10.0,WNW,11.5,-,N/A,,Overcast,290,2013-03-24 02:15:00
10:35 PM,30.7,20.8,67,29.72,10.0,WNW,12.7,19.6,N/A,,Overcast,290,2013-03-24 02:35:00
10:55 PM,30.7,21.0,67,29.72,10.0,West,11.5,-,N/A,,Overcast,280,2013-03-24 02:55:00
11:15 PM,30.7,21.0,67,29.72,10.0,West,8.1,-,N/A,Snow,Light Snow,280,2013-03-24 03:15:00
11:35 PM,30.7,20.8,67,29.72,10.0,WNW,10.4,16.1,N/A,,Overcast,290,2013-03-24 03:35:00
11:55 PM,31.1,20.3,64,29.71,10.0,WNW,12.7,19.6,N/A,,Overcast,290,2013-03-24 03:55:00